Weather History for Lawton, OK

Change the Weather History Date:

Friday, May 24, 2013

  Actual Average Record
Temperature  
Mean Temperature 76 °F -  
Max Temperature 88 °F 84 °F 109 °F (2000)
Min Temperature 64 °F 61 °F 53 °F (1971)
Cooling Degree Days 10    
Growing Degree Days 26 (Base 50)    
Moisture  
Dew Point 66 °F    
Average Humidity 71    
Maximum Humidity 87    
Minimum Humidity 55    
Precipitation  
Precipitation 0.00 in - - ()
Sea Level Pressure  
Sea Level Pressure 30.06 in    
Wind  
Wind Speed 12 mph (SE)    
Max Wind Speed 18 mph    
Max Gust Speed 28 mph    
Visibility 10 miles    
Events Rain , Thunderstorm    
Averages and records for this station are not official NWS values.
T = Trace of Precipitation, MM = Missing Value Source: NWS Daily Summary

Daily Weather History Graph

Daily Weather History Graph

Search for Another Location

Airport:

Trip Planner

Search our weather history database for the weather conditions in past years. The results will help you decide how hot, cold, wet, or windy it might be!

Date:

Astronomy

May. 24, 2013 Rise Set
Actual Time 6:25 AM CDT 8:36 PM CDT
Civil Twilight 5:56 AM CDT 9:04 PM CDT
Nautical Twilight 5:21 AM CDT 9:39 PM CDT
Astronomical Twilight 4:44 AM CDT 10:17 PM CDT
Moon 8:21 PM CDT (5/24) 5:56 AM CDT (5/24)
Length of Visible Light 15h 08m
Length of Day
14h 11m
Full, 100% of the Moon is Illuminated
May 24
Full
May 24
Full
May 31
Last Quarter
Jun 8
New
Jun 16
First Quarter

Hourly Weather History & Observations

Time (CDT) Temp. Heat Index Dew Point Humidity Pressure Visibility Wind Dir Wind Speed Gust Speed Precip Events Conditions
12:53 AM 71.1 °F - 63.0 °F 75% 30.02 in 10.0 mi NE 8.1 mph - N/A   Clear
1:53 AM 69.1 °F - 63.0 °F 81% 30.02 in 10.0 mi NE 9.2 mph - N/A   Clear
2:53 AM 66.0 °F - 62.1 °F 87% 30.02 in 10.0 mi ENE 16.1 mph - N/A   Clear
3:53 AM 64.0 °F - 60.1 °F 87% 30.05 in 10.0 mi ENE 8.1 mph - N/A   Clear
4:53 AM 64.0 °F - 59.0 °F 84% 30.07 in 10.0 mi NE 6.9 mph - N/A   Partly Cloudy
5:53 AM 64.0 °F - 59.0 °F 84% 30.07 in 10.0 mi NE 5.8 mph - N/A   Partly Cloudy
6:53 AM 64.9 °F - 60.1 °F 84% 30.07 in 10.0 mi ENE 8.1 mph - N/A   Clear
7:53 AM 66.9 °F - 62.1 °F 84% 30.09 in 10.0 mi East 6.9 mph - N/A   Clear
8:53 AM 72.0 °F - 64.9 °F 78% 30.09 in 10.0 mi East 12.7 mph - N/A   Scattered Clouds
9:53 AM 75.9 °F - 66.9 °F 74% 30.09 in 10.0 mi SE 15.0 mph - N/A   Partly Cloudy
10:53 AM 80.1 °F 82.9 °F 69.1 °F 69% 30.09 in 9.0 mi ESE 13.8 mph - N/A   Partly Cloudy
11:53 AM 82.0 °F 85.9 °F 70.0 °F 67% 30.09 in 10.0 mi SE 16.1 mph - N/A   Partly Cloudy
12:20 PM 82.4 °F 86.3 °F 69.8 °F 66% 30.12 in 10.0 mi SSE 16.1 mph 25.3 mph N/A   Mostly Cloudy
12:53 PM 84.0 °F 88.4 °F 70.0 °F 63% 30.08 in 10.0 mi SSE 16.1 mph 26.5 mph N/A   Mostly Cloudy
1:37 PM 86.0 °F 90.4 °F 69.8 °F 58% 30.11 in 10.0 mi SE 18.4 mph 24.2 mph N/A   Mostly Cloudy
1:53 PM 86.0 °F 90.1 °F 69.1 °F 57% 30.07 in 10.0 mi SSE 17.3 mph 21.9 mph N/A   Mostly Cloudy
2:53 PM 87.1 °F 92.0 °F 70.0 °F 57% 30.05 in 10.0 mi SE 13.8 mph 25.3 mph N/A   Scattered Clouds
3:53 PM 87.1 °F 91.3 °F 69.1 °F 55% 30.02 in 10.0 mi ESE 18.4 mph 27.6 mph N/A   Scattered Clouds
4:53 PM 86.0 °F 90.1 °F 69.1 °F 57% 30.01 in 10.0 mi ESE 18.4 mph 26.5 mph N/A   Partly Cloudy
5:53 PM 84.9 °F 88.8 °F 69.1 °F 59% 30.01 in 10.0 mi SE 13.8 mph 23.0 mph N/A   Partly Cloudy
6:53 PM 82.0 °F 84.9 °F 68.0 °F 62% 30.02 in 10.0 mi South 18.4 mph 26.5 mph N/A   Mostly Cloudy
7:28 PM 80.6 °F 82.3 °F 64.4 °F 58% 30.06 in 10.0 mi SSE 18.4 mph 27.6 mph N/A Thunderstorm Thunderstorm
7:53 PM 79.0 °F - 66.0 °F 64% 30.04 in 10.0 mi South 12.7 mph - N/A Thunderstorm Partly Cloudy
8:12 PM 78.8 °F - 66.2 °F 65% 30.08 in 10.0 mi SSE 13.8 mph 23.0 mph N/A   Clear
8:53 PM 77.0 °F - 66.9 °F 71% 30.06 in 10.0 mi South 8.1 mph - N/A   Mostly Cloudy
9:53 PM 72.0 °F - 64.9 °F 78% 30.10 in 10.0 mi South 11.5 mph 23.0 mph 0.00 in Rain Light Rain
10:53 PM 69.1 °F - 64.0 °F 84% 30.11 in 10.0 mi SSE 5.8 mph - 0.00 in   Clear
11:53 PM 66.9 °F - 63.0 °F 87% 30.09 in 10.0 mi South 5.8 mph - N/A   Clear